Regional Weather Roundup
Issued by NWS

Home | Current Version | Previous Version | Graphics & Text | Print | Product List | Glossary On
Versions: 1 2 3 4 5 6 7 8 9 10 11 12 13 14 15 16 17 18 19 20 21 22 23 24 25 26 27 28 29 30 31 32 33 34 35 36 37 38 39 40 41 42 43 44 45 46 47 48 49 50
995
ASUS43 KMPX 090101
RWRMN
WEATHER ROUNDUP FOR MINNESOTA
NATIONAL WEATHER SERVICE TWIN CITIES/CHANHASSEN MN
700 PM CST THU DEC 08 2016


NOTE: "FAIR" INDICATES FEW OR NO CLOUDS BELOW 12,000 FEET WITH NO
SIGNIFICANT WEATHER AND/OR OBSTRUCTIONS TO VISIBILITY. N/A MEANS
CURRENT SKY AND/OR WEATHER CONDITIONS ARE NOT AVAILABLE.

MNZ060>063-068>070-090200-
   Twin Cities Metro

CITY           SKY/WX    TMP DP  RH WIND       PRES   REMARKS
TWIN CITIES    FLURRIES  21  11  65 NW12      30.47S WCI   9
ST PAUL        CLOUDY    21  13  71 NW12      30.48S WCI   9
CRYSTAL        CLOUDY    20  10  65 NW13      30.47R WCI   7
BLAINE         FLURRIES  21  14  73 W14       30.45S WCI   8
LAKEVILLE      FLURRIES  18  14  86 NW9       30.47R WCI   6
EDEN PRAIRIE   CLOUDY    21  11  65 NW8       30.47R WCI  11
SOUTH ST PAUL  CLOUDY    22  12  65 NW10      30.47R WCI  11
LAKE ELMO      FLURRIES  23  16  74 NW9       30.45S WCI  13
$$
MNZ001>005-007-008-013>017-022>024-027-028-090200-
   Northwest Minnesota

CITY           SKY/WX    TMP DP  RH WIND       PRES   REMARKS
BEMIDJI        FLURRIES  13  10  87 NW10      30.46S WCI   0
HALLOCK        CLEAR      7   1  78 N10       30.58R WCI  -8
ROSEAU         CLOUDY    10   3  72 NW10      30.51S WCI  -3
WARROAD        CLOUDY    10   7  85 NW10      30.50S WCI  -3
THIEF RVR FALL FLURRIES  10   7  87 NW12      30.53S WCI  -5
CROOKSTON      CLOUDY    10   7  85 N14       30.57S WCI  -5
FOSSTON        LGT SNOW   9   7  92 NW7       30.51S WCI  -3
DETROIT LAKES  LGT SNOW  12  10  92 NW10      30.52R WCI  -1
MOORHEAD       MIX PCPN  10   7  85 W16       30.58S WCI  -7
PARK RAPIDS    PTCLDY     5   0  79 NW9       30.46R WCI  -9
$$
MNZ006-009>011-018-025>026-090200-
   North Central Minnesota

CITY           SKY/WX    TMP DP  RH WIND       PRES   REMARKS
BAUDETTE       LGT SNOW  15   9  76 NW13      30.45R WCI   1
FLAG ISLAND    CLOUDY    12   9  85 W17       30.47S WCI  -5
INTL FALLS     FLURRIES  14   8  77 NW10      30.42S WCI   1
WASKISH        FLURRIES  16  12  86 W14       30.46S WCI   1
BIG FORK       MOCLDY    12   9  85 NW3       30.43R
LONGVILLE      PTCLDY    16  10  79 NW6       30.45R WCI   7
GRAND RAPIDS   FLURRIES  16  10  77 NW13      30.44R WCI   2
CRANE LAKE     CLOUDY    16   9  73 N6G16     30.41R WCI   7
ORR            FLURRIES  16   9  73 NW10G16   30.36S WCI   3
COOK           FLURRIES  16  10  79 NW9       30.39R WCI   4
$$
MNZ012-019>021-037-090200-
   Northeast Minnesota

CITY           SKY/WX    TMP DP  RH WIND       PRES   REMARKS
DULUTH         FLURRIES  19  10  68 NW10G21   30.35R WCI   7
ELY            CLEAR     12   9  85 NW9G17    30.35R WCI   0
HIBBING        LGT SNOW  15   9  76 NW18      30.39R WCI  -2
EVELETH        MIX PCPN  17  11  75 NW12G18   30.38R WCI   5
DULUTH HARBOR  MOCLDY    25  12  58 NW17      30.42R WCI  11
TWO HARBORS    LGT SNOW  23  16  74 NW8       30.34R WCI  14
SILVER BAY     CLEAR     18  12  79 CALM      30.34R
GRAND MARAIS     N/A     19   8  62 CALM      30.36R
G MARAIS ARPRT CLOUDY    10   3  72 NW12G20   30.25R WCI  -4
$$
MNZ029>031-032-039>041-046>048-054>057-064-090200-
   West Central Minnesota

CITY           SKY/WX    TMP DP  RH WIND       PRES   REMARKS
FERGUS FALLS   LGT SNOW   7   3  85 NW14      30.60S WCI -10
WHEATON        CLOUDY    10   5  79 W13G20    30.61S WCI  -5
MORRIS         FLURRIES   9   5  85 NW17      30.55R WCI -10
ALEXANDRIA     CLOUDY    12   8  84 NW15      30.50S WCI  -4
ELBOW LAKE     FLURRIES   9   6  88 W17       30.55S WCI  -9
WADENA         FLURRIES  10   7  85 W7        30.48S WCI   0
GLENWOOD       FLURRIES  10   9  92 W16       30.51R WCI  -7
APPLETON       CLOUDY    12   7  79 NW13G18   30.57S WCI  -3
BENSON         FLURRIES  10   7  85 N13       30.55S WCI  -5
ORTONVILLE     CLOUDY     9   3  78 NW13G22   30.58R WCI  -7
MADISON        CLEAR     12   9  85 NW10G18   30.59R WCI  -1
WILLMAR        LGT SNOW  14  10  85 NW14G20   30.53S WCI  -1
$$
MNZ033>034-036-042>043-049>051-058-059-090200-
   Central Minnesota

CITY           SKY/WX    TMP DP  RH WIND       PRES   REMARKS
ST CLOUD       MOCLDY    16  10  77 NW10      30.48R WCI   4
PAYNESVILLE    CLEAR     13  11  92 W12       30.50S WCI  -1
AITKIN         CLEAR     19   9  63 NW10      30.42R WCI   8
PINE RIVER     FLURRIES  16  12  86 W6        30.47S WCI   7
BRAINERD       PTCLDY    17  12  80 NW9       30.45R WCI   6
STAPLES        CLEAR      9   7  92 W8        30.48R WCI  -4
LONG PRAIRIE   CLOUDY    14   9  79 W8        30.49R WCI   3
LITTLE FALLS   CLOUDY    16  10  79 NW7       30.48R WCI   6
LITCHFIELD     MIX PCPN  16  10  79 NW10      30.50S WCI   3
BUFFALO        CLOUDY    19  11  70 W6        30.49S WCI  11
MAPLE LAKE     CLOUDY    19  13  77 NW7       30.49S WCI  10
HUTCHINSON     FLURRIES  17  11  80 W12       30.51R WCI   4
$$
MNZ037-044-045-052-053-090200-
   East Central Minnesota

CITY           SKY/WX    TMP DP  RH WIND       PRES   REMARKS
PRINCETON      CLOUDY    19  12  73 W10       30.46S WCI   8
MORA           PTCLDY    19  12  73 W7        30.45R WCI  10
CAMBRIDGE      FLURRIES  21  12  68 W7        30.44R WCI  13
RUSH CITY      PTCLDY    21  12  68 W6        30.44R WCI  14
MOOSE LAKE     CLEAR     19  12  73 NW6       30.40R WCI  11
HINCKLEY       FAIR      19  16  86 W3        30.43R
CLOQUET        CLOUDY    19  10  68 NW12G18   30.38R WCI   7
MCGREGOR       CLEAR     19  12  73 NW12G17   30.42R WCI   7
$$
MNZ071>073-080-081-089-090-097-098-090200-
   Southwest Minnesota

CITY           SKY/WX    TMP DP  RH WIND       PRES   REMARKS
MONTEVIDEO     FLURRIES  10   7  85 N10       30.58S WCI  -3
GRANITE FALLS  CLEAR     13  10  84 W13       30.58S WCI  -1
CANBY          CLEAR     13   8  79 W12       30.59R WCI  -1
MARSHALL       PTCLDY    11   7  84 NW14      30.57R WCI  -5
REDWOOD FALLS  PTCLDY    13   6  74 NW12G20   30.55R WCI  -1
OLIVIA         FLURRIES  16  10  79 NW13G21   30.53S WCI   2
PIPESTONE      CLEAR     10   7  85 NW13G18   30.54S WCI  -5
WINDOM         PTCLDY    12   9  85 NW12      30.52R WCI  -2
WORTHINGTON    CLEAR     12   7  80 W17       30.53S WCI  -5
JACKSON        CLEAR     12   9  85 NW14      30.52R WCI  -3
TRACY          PTCLDY    14   9  82 NW13G18   30.55R WCI   0
SLAYTON        CLEAR     11   7  83 NW13      30.53R WCI  -3
$$
MNZ065>067-074>077-082>085-091>093-090200-
   South Central Minnesota

CITY           SKY/WX    TMP DP  RH WIND       PRES   REMARKS
MANKATO        FLURRIES  15  10  80 NW16      30.52R WCI  -1
NEW ULM        CLOUDY    12   9  85 NW15      30.53R WCI  -4
ST JAMES       PTCLDY    14  10  85 NW14G21   30.54S WCI  -1
FAIRMONT       CLEAR     15  10  80 NW17      30.53R WCI  -1
GLENCOE        FLURRIES  19  14  82 W15       30.49S WCI   4
FARIBAULT      FLURRIES  18  12  79 W12       30.48R WCI   5
OWATONNA       FLURRIES  18  12  79 W13       30.47R WCI   4
WASECA         FLURRIES  18  12  79 W15G21    30.50S WCI   3
ALBERT LEA     FLURRIES  19  12  73 NW13G20   30.47S WCI   7
$$
MNZ078>079-086>088-094>096-090200-
   Southeast Minnesota

CITY           SKY/WX    TMP DP  RH WIND       PRES   REMARKS
ROCHESTER      FLURRIES  19  14  81 NW16      30.42S WCI   4
RED WING       CLOUDY    23  12  63 NW10      30.44S WCI  12
STANTON        LGT SNOW  21  17  84 W8        30.46R WCI  11
DODGE CENTER   FLURRIES  18  12  79 W17       30.44R WCI   2
WINONA         CLOUDY    23  18  80 NW7       30.44R WCI  15
AUSTIN         FLURRIES  18  10  73 NW17G23   30.45S WCI   2
PRESTON        LGT SNOW  18  14  82 NW14      30.42S WCI   4
$$
ABBREVIATIONS USED IN REMARKS
   TC - TEMPERATURES IN CELSIUS
  WCI - WIND CHILL INDEX
   HX - HEAT INDEX
  VSB - VISIBILITY
$$




USA.gov is the U.S. government's official web portal to all federal, state and local government web resources and services.